Retour au catalogue

CZ-4C DEB

ActifSSO
NORAD 43261·DEBRIS·🇨🇳 China

Lancé Mar 31, 2018 depuis Taiyuan Satellite Launch Center

Loading…

Prochains Passages (prochaines 24 heures)

TLE

FraisSource: Space-Track

Époque: Sep 14, 2026, 21:30 UTC

1 43261U 18031C   26257.89607942  .00005515  00000-0  42143-3 0  9999
2 43261  97.7680 342.2365 0009037  13.2070 346.9390 15.02330416457872

Suivez CZ-4C DEB en temps réel avec AllMySat

Download on the App Store